,,PA_Meas_PMT16A,,PR_Meas_QMR101_102,,RH_Meas_QMH101,,SR_Meas_QMS101,,TA_Meas_QMH101,,GenWind,,GenWind,
time,status,PA,status,PR,status,RH,status,SR,status,TA,status,DirAvg,status,SpdAvg,
2016-07-17, 08:52:04,VALID,919.617,VALID,0,VALID,90.7644,VALID,237.445,VALID,22.8812,VALID,234,VALID,0,
2016-07-17, 08:53:04,VALID,919.624,VALID,0,VALID,97.8313,VALID,235.189,VALID,22.7038,VALID,234,VALID,0,
2016-07-17, 08:54:04,VALID,919.646,VALID,0,VALID,102.581,VALID,232.073,VALID,22.6079,VALID,235,VALID,0,
2016-07-17, 08:55:04,VALID,919.637,VALID,0,VALID,104,VALID,229.387,VALID,22.5494,VALID,237,VALID,0,
2016-07-17, 08:56:04,VALID,919.656,VALID,0,VALID,104,VALID,228.527,VALID,22.5689,VALID,234,VALID,0,
2016-07-17, 08:57:04,VALID,919.64,VALID,0,VALID,104,VALID,228.85,VALID,22.6665,VALID,205,VALID,0,
2016-07-17, 08:58:04,VALID,919.643,VALID,0,VALID,93.3792,VALID,229.709,VALID,22.7836,VALID,184,VALID,0,
2016-07-17, 08:59:04,VALID,919.669,VALID,0,VALID,84.9325,VALID,230.246,VALID,22.8209,VALID,184,VALID,0,
2016-07-17, 09:00:04,VALID,919.687,VALID,0,VALID,82.7293,VALID,231.858,VALID,22.9185,VALID,184,VALID,0,
2016-07-17, 09:01:04,VALID,919.655,VALID,0,VALID,82.8589,VALID,235.941,VALID,22.9983,VALID,184,VALID,0,
2016-07-17, 09:02:04,VALID,919.671,VALID,0,VALID,82.836,VALID,243.462,VALID,23.0941,VALID,184,VALID,0,
2016-07-17, 09:03:04,VALID,919.679,VALID,0,VALID,82.2109,VALID,253.346,VALID,23.1722,VALID,184,VALID,0,
2016-07-17, 09:04:04,VALID,919.666,VALID,0,VALID,81.4867,VALID,263.553,VALID,23.2698,VALID,184,VALID,0,
2016-07-17, 09:05:04,VALID,919.672,VALID,0,VALID,81.0369,VALID,273.115,VALID,23.2893,VALID,177,VALID,0,
2016-07-17, 09:06:04,VALID,919.662,VALID,0,VALID,80.2669,VALID,283.107,VALID,23.2112,VALID,151,VALID,0,
2016-07-17, 09:07:04,VALID,919.67,VALID,0,VALID,79.4665,VALID,288.802,VALID,23.2307,VALID,176,VALID,0,
2016-07-17, 09:08:04,VALID,919.627,VALID,0,VALID,80.2136,VALID,292.025,VALID,23.2502,VALID,176,VALID,0,
2016-07-17, 09:09:04,VALID,919.656,VALID,0,VALID,81.197,VALID,292.347,VALID,23.3691,VALID,176,VALID,0,
2016-07-17, 09:10:04,VALID,919.636,VALID,0,VALID,80.3889,VALID,289.876,VALID,23.3478,VALID,176,VALID,0,
2016-07-17, 09:11:04,VALID,919.656,VALID,0,VALID,81.1741,VALID,286.868,VALID,23.4064,VALID,175,VALID,0,
2016-07-17, 09:12:04,VALID,919.668,VALID,0,VALID,79.9315,VALID,285.256,VALID,23.4259,VALID,168,VALID,0,
2016-07-17, 09:13:04,VALID,919.682,VALID,0,VALID,81.2732,VALID,283.86,VALID,23.4845,VALID,169,VALID,0,
2016-07-17, 09:14:04,VALID,919.661,VALID,0,VALID,80.7625,VALID,283.537,VALID,23.543,VALID,64,VALID,0,
2016-07-17, 09:15:04,VALID,919.695,VALID,0,VALID,81.2427,VALID,283.322,VALID,23.5608,VALID,51,VALID,0,
2016-07-17, 09:16:04,VALID,919.693,VALID,0,VALID,79.0853,VALID,283.107,VALID,23.504,VALID,50,VALID,0,
2016-07-17, 09:17:04,VALID,919.69,VALID,0,VALID,80.5643,VALID,283.967,VALID,23.4472,VALID,54,VALID,0,
2016-07-17, 09:18:04,VALID,919.667,VALID,0,VALID,81.1818,VALID,286.223,VALID,23.4082,VALID,42,VALID,0,
2016-07-17, 09:19:04,VALID,919.66,VALID,0,VALID,80.8463,VALID,290.521,VALID,23.3691,VALID,52,VALID,0,
2016-07-17, 09:20:04,VALID,919.681,VALID,0,VALID,81.784,VALID,299.331,VALID,23.2893,VALID,55,VALID,0,
2016-07-17, 09:21:04,VALID,919.69,VALID,0,VALID,83.2553,VALID,324.15,VALID,23.2893,VALID,55,VALID,0,
2016-07-17, 09:22:04,VALID,919.657,VALID,0,VALID,82.6531,VALID,411.715,VALID,23.3283,VALID,62,VALID,0,
2016-07-17, 09:23:04,VALID,919.676,VALID,0,VALID,83.789,VALID,370.242,VALID,23.4064,VALID,62,VALID,0,
2016-07-17, 09:24:04,VALID,919.627,VALID,0,VALID,83.0724,VALID,334.035,VALID,23.5626,VALID,40,VALID,0,
2016-07-17, 09:25:04,VALID,919.654,VALID,0,VALID,81.0293,VALID,341.126,VALID,23.7578,VALID,25,VALID,0,
2016-07-17, 09:26:04,VALID,919.66,VALID,0,VALID,80.1374,VALID,340.051,VALID,23.953,VALID,22,VALID,0,
2016-07-17, 09:27:04,VALID,919.657,VALID,0,VALID,78.5059,VALID,319.637,VALID,24.0506,VALID,358,VALID,0,
2016-07-17, 09:28:04,VALID,919.669,VALID,0,VALID,79.4436,VALID,323.183,VALID,24.1092,VALID,356,VALID,0,
2016-07-17, 09:29:04,VALID,919.656,VALID,0,VALID,79.1463,VALID,323.29,VALID,24.2068,VALID,356,VALID,0,
2016-07-17, 09:30:04,VALID,919.701,VALID,0,VALID,76.844,VALID,329.844,VALID,24.3026,VALID,356,VALID,0,
2016-07-17, 09:31:04,VALID,919.658,VALID,0,VALID,76.7068,VALID,338.977,VALID,24.4197,VALID,356,VALID,0,
2016-07-17, 09:32:04,VALID,919.665,VALID,0,VALID,75.5633,VALID,334.249,VALID,24.6168,VALID,356,VALID,0,
2016-07-17, 09:33:04,VALID,919.648,VALID,0,VALID,76.0207,VALID,335.431,VALID,24.7535,VALID,6,VALID,0,
2016-07-17, 09:34:04,VALID,919.671,VALID,0,VALID,78.2849,VALID,337.688,VALID,24.8492,VALID,350,VALID,0,
2016-07-17, 09:35:04,VALID,919.653,VALID,0,VALID,78.0257,VALID,341.018,VALID,24.8883,VALID,16,VALID,0,
2016-07-17, 09:36:04,VALID,919.633,VALID,0,VALID,76.0512,VALID,340.051,VALID,24.9078,VALID,172,VALID,0,
2016-07-17, 09:37:04,VALID,919.658,VALID,0,VALID,74.3969,VALID,338.869,VALID,24.7516,VALID,158,VALID,0,
2016-07-17, 09:38:04,VALID,919.655,VALID,0,VALID,75.7386,VALID,333.712,VALID,24.6559,VALID,166,VALID,0,
2016-07-17, 09:39:04,VALID,919.677,VALID,0,VALID,77.0346,VALID,328.877,VALID,24.6754,VALID,171,VALID,0,
2016-07-17, 09:40:04,VALID,919.652,VALID,0,VALID,75.5176,VALID,325.439,VALID,24.6559,VALID,174,VALID,0,
2016-07-17, 09:41:04,VALID,919.663,VALID,0,VALID,75.609,VALID,323.935,VALID,24.5564,VALID,156,VALID,0,
2016-07-17, 09:42:04,VALID,919.667,VALID,0,VALID,76.7373,VALID,322.861,VALID,24.5173,VALID,170,VALID,0,
2016-07-17, 09:43:04,VALID,919.676,VALID,0,VALID,74.214,VALID,322.538,VALID,24.4587,VALID,141,VALID,0,
2016-07-17, 09:44:04,VALID,919.679,VALID,0,VALID,75.853,VALID,322.001,VALID,24.3611,VALID,141,VALID,0,
2016-07-17, 09:45:04,VALID,919.652,VALID,0,VALID,77.7588,VALID,322.323,VALID,24.3825,VALID,139,VALID,0,
2016-07-17, 09:46:04,VALID,919.674,VALID,0,VALID,75.792,VALID,324.902,VALID,24.4197,VALID,168,VALID,0,
2016-07-17, 09:47:04,VALID,919.638,VALID,0,VALID,76.1427,VALID,333.068,VALID,24.4197,VALID,120,VALID,0,
2016-07-17, 09:48:04,VALID,919.631,VALID,0,VALID,76.1732,VALID,333.927,VALID,24.4392,VALID,163,VALID,0,
2016-07-17, 09:49:04,VALID,919.647,VALID,0,VALID,75.7158,VALID,338.547,VALID,24.5564,VALID,167,VALID,0,
2016-07-17, 09:50:04,VALID,919.65,VALID,0,VALID,75.3346,VALID,343.704,VALID,24.654,VALID,164,VALID,0,
2016-07-17, 09:51:04,VALID,919.667,VALID,0,VALID,75.8682,VALID,348.324,VALID,24.7126,VALID,147,VALID,0,
2016-07-17, 09:52:04,VALID,919.628,VALID,0,VALID,71.9346,VALID,350.58,VALID,24.693,VALID,151,VALID,0,
2016-07-17, 09:53:04,VALID,919.651,VALID,0,VALID,73.3449,VALID,349.399,VALID,24.654,VALID,118,VALID,0,
2016-07-17, 09:54:04,VALID,919.644,VALID,0,VALID,75.4718,VALID,344.779,VALID,24.7711,VALID,127,VALID,0,
2016-07-17, 09:55:04,VALID,919.633,VALID,0,VALID,74.3359,VALID,338.117,VALID,24.8883,VALID,198,VALID,0,
2016-07-17, 09:56:04,VALID,919.649,VALID,0,VALID,75.327,VALID,330.919,VALID,24.9469,VALID,206,VALID,0,
2016-07-17, 09:57:04,VALID,919.607,VALID,0,VALID,75.1898,VALID,322.109,VALID,24.8688,VALID,149,VALID,0,
2016-07-17, 09:58:04,VALID,919.604,VALID,0,VALID,75.8149,VALID,318.456,VALID,24.7516,VALID,133,VALID,0,
2016-07-17, 09:59:04,VALID,919.638,VALID,0,VALID,76.9813,VALID,321.786,VALID,24.7888,VALID,201,VALID,0,
2016-07-17, 10:00:04,VALID,919.625,VALID,0,VALID,76.5238,VALID,354.126,VALID,24.9097,VALID,194,VALID,0,
2016-07-17, 10:01:04,VALID,919.593,VALID,0,VALID,75.7463,VALID,660.011,VALID,24.9683,VALID,165,VALID,0,
2016-07-17, 10:02:04,VALID,919.603,VALID,0,VALID,76.6687,VALID,509.056,VALID,24.9274,VALID,163,VALID,0.157422,
2016-07-17, 10:03:04,VALID,919.615,VALID,0,VALID,75.4413,VALID,330.274,VALID,24.8121,VALID,170,VALID,0,
2016-07-17, 10:04:04,VALID,919.603,VALID,0,VALID,77.0804,VALID,322.538,VALID,24.7516,VALID,179,VALID,0,
2016-07-17, 10:05:04,VALID,919.618,VALID,0,VALID,75.7996,VALID,328.555,VALID,24.8297,VALID,177,VALID,0,
2016-07-17, 10:06:04,VALID,919.617,VALID,0,VALID,76.4629,VALID,418.161,VALID,24.8492,VALID,167,VALID,0,
2016-07-17, 10:07:04,VALID,919.606,VALID,0,VALID,74.9687,VALID,346.82,VALID,24.693,VALID,134,VALID,0,
2016-07-17, 10:08:04,VALID,919.616,VALID,0,VALID,75.205,VALID,348.109,VALID,24.6559,VALID,152,VALID,0,
2016-07-17, 10:09:04,VALID,919.646,VALID,0,VALID,76.8517,VALID,363.366,VALID,24.654,VALID,149,VALID,0,
2016-07-17, 10:10:04,VALID,919.618,VALID,0,VALID,76.1046,VALID,360.895,VALID,24.693,VALID,141,VALID,0,
2016-07-17, 10:11:04,VALID,919.643,VALID,0,VALID,75.9902,VALID,359.283,VALID,24.5954,VALID,151,VALID,0.685938,
2016-07-17, 10:12:04,VALID,919.613,VALID,0,VALID,76.4781,VALID,351.225,VALID,24.5564,VALID,165,VALID,0.208594,
2016-07-17, 10:13:04,VALID,919.64,VALID,0,VALID,77.0804,VALID,352.085,VALID,24.5935,VALID,142,VALID,0,
2016-07-17, 10:14:04,VALID,919.645,VALID,0,VALID,76.5848,VALID,352.085,VALID,24.5564,VALID,157,VALID,0.0539063,
2016-07-17, 10:15:04,VALID,919.63,VALID,0,VALID,77.4615,VALID,352.837,VALID,24.4002,VALID,147,VALID,0.0585938,
2016-07-17, 10:16:04,VALID,919.64,VALID,0,VALID,75.6929,VALID,360.895,VALID,24.4392,VALID,156,VALID,0.533203,
2016-07-17, 10:17:04,VALID,919.627,VALID,0,VALID,75.5099,VALID,380.234,VALID,24.3806,VALID,154,VALID,0.0871094,
2016-07-17, 10:18:04,VALID,919.599,VALID,0,VALID,75.1593,VALID,460.278,VALID,24.3611,VALID,159,VALID,0.328906,
2016-07-17, 10:19:04,VALID,919.606,VALID,0,VALID,76.4934,VALID,650.341,VALID,24.4587,VALID,144,VALID,0,
2016-07-17, 10:20:04,VALID,919.575,VALID,0,VALID,77.7283,VALID,394.094,VALID,24.5954,VALID,152,VALID,0,
2016-07-17, 10:21:04,VALID,919.534,VALID,0,VALID,78.1476,VALID,424.93,VALID,24.7711,VALID,131,VALID,0,
2016-07-17, 10:22:04,VALID,919.539,VALID,0,VALID,74.6256,VALID,557.297,VALID,24.7907,VALID,153,VALID,0.845703,
2016-07-17, 10:23:04,VALID,919.51,VALID,0,VALID,75.7234,VALID,513.891,VALID,24.6912,VALID,167,VALID,0.711328,
2016-07-17, 10:24:04,VALID,919.493,VALID,0,VALID,75.67,VALID,520.23,VALID,24.7497,VALID,163,VALID,0.401563,
2016-07-17, 10:25:04,VALID,919.479,VALID,0,VALID,74.6409,VALID,501.428,VALID,24.8864,VALID,150,VALID,0.0394531,
2016-07-17, 10:26:04,VALID,919.447,VALID,0,VALID,75.3498,VALID,471.129,VALID,24.945,VALID,155,VALID,0,
2016-07-17, 10:27:04,VALID,919.444,VALID,0,VALID,73.4669,VALID,530.759,VALID,25.0036,VALID,162,VALID,0.377734,
2016-07-17, 10:28:04,VALID,919.422,VALID,0,VALID,74.801,VALID,502.502,VALID,24.945,VALID,153,VALID,0.885547,
2016-07-17, 10:29:04,VALID,919.395,VALID,0,VALID,74.1377,VALID,458.989,VALID,24.9255,VALID,163,VALID,0,
2016-07-17, 10:30:04,VALID,919.404,VALID,0,VALID,74.2978,VALID,549.454,VALID,24.9645,VALID,164,VALID,0.441797,
2016-07-17, 10:31:04,VALID,919.405,VALID,0,VALID,75.3117,VALID,555.793,VALID,24.945,VALID,175,VALID,0.0222656,
2016-07-17, 10:32:04,VALID,919.403,VALID,0,VALID,72.4911,VALID,634.118,VALID,24.9059,VALID,163,VALID,1.75352,
2016-07-17, 10:33:04,VALID,919.388,VALID,0,VALID,73.2077,VALID,244.858,VALID,24.8864,VALID,159,VALID,1.34648,
2016-07-17, 10:34:04,VALID,919.387,VALID,0,VALID,73.6498,VALID,246.9,VALID,24.984,VALID,168,VALID,0.398047,
2016-07-17, 10:35:04,VALID,919.373,VALID,0,VALID,73.1009,VALID,412.252,VALID,25.0798,VALID,188,VALID,0,
2016-07-17, 10:36:04,VALID,919.372,VALID,0,VALID,72.2242,VALID,213.808,VALID,25.0231,VALID,150,VALID,1.98672,
2016-07-17, 10:37:04,VALID,919.324,VALID,0,VALID,74.2444,VALID,201.667,VALID,24.904,VALID,164,VALID,0.888281,
2016-07-17, 10:38:04,VALID,919.359,VALID,0,VALID,75.6243,VALID,195.543,VALID,24.9255,VALID,119,VALID,0,
2016-07-17, 10:39:04,VALID,919.335,VALID,0,VALID,75.3575,VALID,246.363,VALID,24.8845,VALID,124,VALID,0,
2016-07-17, 10:40:04,VALID,919.343,VALID,0,VALID,76.562,VALID,176.741,VALID,24.8864,VALID,139,VALID,0,
2016-07-17, 10:41:04,VALID,919.344,VALID,0,VALID,77.492,VALID,168.79,VALID,24.9059,VALID,95,VALID,0,
2016-07-17, 10:42:04,VALID,919.353,VALID,0,VALID,77.0804,VALID,167.931,VALID,24.9236,VALID,96,VALID,0,
2016-07-17, 10:43:04,VALID,919.352,VALID,0,VALID,75.6319,VALID,168.145,VALID,24.8474,VALID,160,VALID,0,
2016-07-17, 10:44:04,VALID,919.327,VALID,0,VALID,76.3714,VALID,173.732,VALID,24.7497,VALID,163,VALID,0,
2016-07-17, 10:45:04,VALID,919.327,VALID,0,VALID,76.7602,VALID,174.377,VALID,24.7888,VALID,164,VALID,0,
2016-07-17, 10:46:04,VALID,919.335,VALID,0,VALID,75.975,VALID,168.79,VALID,24.8278,VALID,168,VALID,0,
2016-07-17, 10:47:04,VALID,919.331,VALID,0,VALID,75.8454,VALID,165.352,VALID,24.8102,VALID,161,VALID,0,
2016-07-17, 10:48:04,VALID,919.341,VALID,0,VALID,76.6001,VALID,161.054,VALID,24.7869,VALID,149,VALID,0,
2016-07-17, 10:49:04,VALID,919.338,VALID,0,VALID,76.2342,VALID,158.261,VALID,24.7693,VALID,142,VALID,0,
2016-07-17, 10:50:04,VALID,919.34,VALID,0,VALID,75.9597,VALID,158.798,VALID,24.7888,VALID,141,VALID,0,
2016-07-17, 10:51:04,VALID,919.345,VALID,0,VALID,77.5911,VALID,158.476,VALID,24.9059,VALID,141,VALID,0,
2016-07-17, 10:52:04,VALID,919.334,VALID,0,VALID,77.675,VALID,158.905,VALID,24.9859,VALID,141,VALID,0,
2016-07-17, 10:53:04,VALID,919.343,VALID,0,VALID,73.0399,VALID,160.839,VALID,25.0426,VALID,169,VALID,0,
2016-07-17, 10:54:04,VALID,919.332,VALID,0,VALID,73.1086,VALID,164.17,VALID,25.1207,VALID,169,VALID,0,
2016-07-17, 10:55:04,VALID,919.337,VALID,0,VALID,74.3359,VALID,168.145,VALID,25.2203,VALID,159,VALID,0,
2016-07-17, 10:56:04,VALID,919.325,VALID,0,VALID,73.3449,VALID,172.873,VALID,25.1793,VALID,158,VALID,0,
2016-07-17, 10:57:04,VALID,919.294,VALID,0,VALID,71.2027,VALID,180.394,VALID,25.0817,VALID,140,VALID,0,
2016-07-17, 10:58:04,VALID,919.269,VALID,0,VALID,69.8,VALID,187.485,VALID,25.0817,VALID,142,VALID,0,
2016-07-17, 10:59:04,VALID,919.264,VALID,0,VALID,71.3552,VALID,194.791,VALID,25.0817,VALID,156,VALID,0,
2016-07-17, 11:00:04,VALID,919.282,VALID,0,VALID,72.7731,VALID,198.336,VALID,25.1402,VALID,176,VALID,0,
2016-07-17, 11:01:04,VALID,919.28,VALID,0,VALID,70.3336,VALID,206.502,VALID,25.2183,VALID,204,VALID,0,
2016-07-17, 11:02:04,VALID,919.273,VALID,0,VALID,67.0861,VALID,208.651,VALID,25.2769,VALID,159,VALID,0,
2016-07-17, 11:03:05,VALID,919.252,VALID,0,VALID,66.7735,VALID,210.262,VALID,25.4156,VALID,159,VALID,0,
2016-07-17, 11:04:05,VALID,919.232,VALID,0,VALID,66.9488,VALID,214.345,VALID,25.4937,VALID,159,VALID,0,
2016-07-17, 11:05:05,VALID,919.199,VALID,0,VALID,66.5448,VALID,221.759,VALID,25.5913,VALID,159,VALID,0,
2016-07-17, 11:06:05,VALID,919.209,VALID,0,VALID,67.6654,VALID,236.478,VALID,25.689,VALID,150,VALID,0,
2016-07-17, 11:07:05,VALID,919.202,VALID,0,VALID,67.8408,VALID,252.057,VALID,25.8062,VALID,171,VALID,0,
2016-07-17, 11:08:05,VALID,919.199,VALID,0,VALID,65.3098,VALID,260.437,VALID,25.8843,VALID,185,VALID,0,
2016-07-17, 11:09:05,VALID,919.19,VALID,0,VALID,64.982,VALID,258.826,VALID,25.9409,VALID,186,VALID,0,
2016-07-17, 11:10:05,VALID,919.191,VALID,0,VALID,66.2322,VALID,256.032,VALID,26.019,VALID,193,VALID,0,
2016-07-17, 11:11:05,VALID,919.171,VALID,0,VALID,67.0327,VALID,253.239,VALID,26.021,VALID,196,VALID,0,
2016-07-17, 11:12:05,VALID,919.18,VALID,0,VALID,67.0708,VALID,253.454,VALID,26.0406,VALID,191,VALID,0,
2016-07-17, 11:13:05,VALID,919.198,VALID,0,VALID,68.2906,VALID,252.594,VALID,26.021,VALID,184,VALID,0,
2016-07-17, 11:14:05,VALID,919.158,VALID,0,VALID,66.743,VALID,248.726,VALID,26.0796,VALID,188,VALID,0,
2016-07-17, 11:15:05,VALID,919.139,VALID,0,VALID,66.9565,VALID,244.536,VALID,26.1187,VALID,188,VALID,0,
2016-07-17, 11:16:05,VALID,919.135,VALID,0,VALID,67.7264,VALID,235.941,VALID,26.0796,VALID,188,VALID,0,
2016-07-17, 11:17:05,VALID,919.105,VALID,0,VALID,68.8852,VALID,227.99,VALID,26.1382,VALID,188,VALID,0,
2016-07-17, 11:18:05,VALID,919.081,VALID,0,VALID,67.4825,VALID,220.362,VALID,26.1578,VALID,218,VALID,0,
2016-07-17, 11:19:05,VALID,919.099,VALID,0,VALID,66.6058,VALID,215.312,VALID,26.1187,VALID,217,VALID,0,
2016-07-17, 11:20:05,VALID,919.091,VALID,0,VALID,69.4874,VALID,214.667,VALID,26.1382,VALID,214,VALID,0,
2016-07-17, 11:21:05,VALID,919.068,VALID,0,VALID,70.7301,VALID,209.94,VALID,26.1382,VALID,188,VALID,0,
2016-07-17, 11:22:05,VALID,919.071,VALID,0,VALID,70.6767,VALID,203.816,VALID,26.0776,VALID,207,VALID,0,
2016-07-17, 11:23:05,VALID,919.08,VALID,0,VALID,70.9435,VALID,199.733,VALID,26.0992,VALID,207,VALID,0,
2016-07-17, 11:24:05,VALID,919.079,VALID,0,VALID,75.3727,VALID,197.907,VALID,26.0015,VALID,207,VALID,0,
2016-07-17, 11:25:05,VALID,919.09,VALID,0,VALID,74.092,VALID,197.584,VALID,25.8237,VALID,207,VALID,0,
2016-07-17, 11:26:05,VALID,919.099,VALID,0,VALID,73.1391,VALID,198.336,VALID,25.8062,VALID,200,VALID,0,
2016-07-17, 11:27:05,VALID,919.076,VALID,0,VALID,73.4821,VALID,195.865,VALID,25.7866,VALID,223,VALID,0,
2016-07-17, 11:28:05,VALID,919.043,VALID,0,VALID,74.3207,VALID,193.716,VALID,25.7066,VALID,207,VALID,0,
2016-07-17, 11:29:05,VALID,919.058,VALID,0,VALID,76.3942,VALID,195.328,VALID,25.6284,VALID,208,VALID,0,
2016-07-17, 11:30:05,VALID,919.014,VALID,0,VALID,74.4579,VALID,200.808,VALID,25.5132,VALID,247,VALID,0,
2016-07-17, 11:31:05,VALID,918.991,VALID,0,VALID,74.5799,VALID,207.254,VALID,25.3765,VALID,256,VALID,0.271094,
2016-07-17, 11:32:05,VALID,918.971,VALID,0,VALID,76.8212,VALID,213.378,VALID,25.2788,VALID,260,VALID,0,
2016-07-17, 11:33:05,VALID,918.961,VALID,0,VALID,75.3498,VALID,215.849,VALID,25.1617,VALID,216,VALID,0,
2016-07-17, 11:34:05,VALID,918.921,VALID,0,VALID,76.0893,VALID,215.957,VALID,25.2398,VALID,230,VALID,0,
2016-07-17, 11:35:05,VALID,918.878,VALID,0,VALID,76.1274,VALID,211.444,VALID,25.2788,VALID,248,VALID,0,
2016-07-17, 11:36:05,VALID,918.87,VALID,0,VALID,76.5315,VALID,208.436,VALID,25.2788,VALID,244,VALID,0,
2016-07-17, 11:37:05,VALID,918.87,VALID,0,VALID,77.2786,VALID,204.138,VALID,25.2593,VALID,250,VALID,0,
2016-07-17, 11:38:05,VALID,918.877,VALID,0,VALID,75.4566,VALID,196.94,VALID,25.1812,VALID,250,VALID,0,
2016-07-17, 11:39:05,VALID,918.84,VALID,0,VALID,77.2404,VALID,187.807,VALID,25.1617,VALID,250,VALID,0,
2016-07-17, 11:40:05,VALID,918.839,VALID,0,VALID,76.6153,VALID,179.104,VALID,25.1812,VALID,236,VALID,0,
2016-07-17, 11:41:05,VALID,918.826,VALID,0,VALID,77.7055,VALID,175.237,VALID,25.2027,VALID,252,VALID,0,
2016-07-17, 11:42:05,VALID,918.829,VALID,0,VALID,78.3306,VALID,178.997,VALID,25.1422,VALID,252,VALID,0,
2016-07-17, 11:43:05,VALID,918.807,VALID,0,VALID,77.7665,VALID,184.262,VALID,25.0836,VALID,252,VALID,0,
2016-07-17, 11:44:05,VALID,918.773,VALID,0,VALID,77.1413,VALID,190.171,VALID,25.064,VALID,217,VALID,0,
2016-07-17, 11:45:05,VALID,918.777,VALID,0,VALID,77.0194,VALID,195.221,VALID,25.1422,VALID,224,VALID,0,
2016-07-17, 11:46:05,VALID,918.732,VALID,0,VALID,75.0449,VALID,200.163,VALID,25.1226,VALID,246,VALID,0,
2016-07-17, 11:47:05,VALID,918.73,VALID,0,VALID,75.5709,VALID,200.593,VALID,25.064,VALID,263,VALID,0,
2016-07-17, 11:48:05,VALID,918.746,VALID,0,VALID,75.914,VALID,200.915,VALID,25.0445,VALID,245,VALID,0,
2016-07-17, 11:49:05,VALID,918.706,VALID,0,VALID,76.1122,VALID,202.634,VALID,25.0445,VALID,244,VALID,0,
2016-07-17, 11:50:05,VALID,918.721,VALID,0,VALID,76.6611,VALID,207.684,VALID,25.0055,VALID,242,VALID,0,
2016-07-17, 11:51:05,VALID,918.717,VALID,0,VALID,76.257,VALID,212.196,VALID,25.025,VALID,241,VALID,0,
2016-07-17, 11:52:05,VALID,918.694,VALID,0,VALID,75.9521,VALID,213.486,VALID,25.0836,VALID,259,VALID,0,
2016-07-17, 11:53:05,VALID,918.708,VALID,0,VALID,74.5341,VALID,206.824,VALID,25.064,VALID,262,VALID,0,
2016-07-17, 11:54:05,VALID,918.713,VALID,0,VALID,75.4337,VALID,198.981,VALID,25.0836,VALID,242,VALID,0,
2016-07-17, 11:55:05,VALID,918.733,VALID,0,VALID,75.8301,VALID,188.022,VALID,25.0445,VALID,246,VALID,0,
2016-07-17, 11:56:05,VALID,918.72,VALID,0,VALID,78.0104,VALID,177.063,VALID,25.0836,VALID,246,VALID,0,
2016-07-17, 11:57:05,VALID,918.715,VALID,0,VALID,78.4602,VALID,167.071,VALID,25.064,VALID,246,VALID,0,
2016-07-17, 11:58:05,VALID,918.732,VALID,0,VALID,77.9494,VALID,159.443,VALID,25.025,VALID,250,VALID,0,
2016-07-17, 11:59:05,VALID,918.735,VALID,0,VALID,77.6445,VALID,155.79,VALID,25.0055,VALID,250,VALID,0,
2016-07-17, 12:00:05,VALID,918.744,VALID,0,VALID,74.6714,VALID,154.285,VALID,24.9859,VALID,250,VALID,0,
2016-07-17, 12:01:05,VALID,918.722,VALID,0,VALID,76.5391,VALID,151.599,VALID,25.025,VALID,250,VALID,0,
2016-07-17, 12:02:05,VALID,918.715,VALID,0,VALID,77.7436,VALID,151.707,VALID,25.0855,VALID,250,VALID,0,
2016-07-17, 12:03:05,VALID,918.7,VALID,0,VALID,75.7081,VALID,153.104,VALID,25.0855,VALID,250,VALID,0,
2016-07-17, 12:04:05,VALID,918.681,VALID,0,VALID,76.3485,VALID,155.682,VALID,25.1245,VALID,251,VALID,0,
2016-07-17, 12:05:05,VALID,918.676,VALID,0,VALID,75.1211,VALID,158.476,VALID,25.105,VALID,250,VALID,0,
2016-07-17, 12:06:05,VALID,918.638,VALID,0,VALID,77.2023,VALID,167.931,VALID,25.1207,VALID,250,VALID,0,
2016-07-17, 12:07:05,VALID,918.667,VALID,0,VALID,75.3498,VALID,181.361,VALID,25.1617,VALID,251,VALID,0,
2016-07-17, 12:08:05,VALID,918.663,VALID,0,VALID,75.6853,VALID,197.369,VALID,25.2203,VALID,250,VALID,0,
2016-07-17, 12:09:05,VALID,918.612,VALID,0,VALID,75.1211,VALID,232.825,VALID,25.2593,VALID,250,VALID,0,
2016-07-17, 12:10:05,VALID,918.587,VALID,0,VALID,75.9292,VALID,294.711,VALID,25.2593,VALID,250,VALID,0,
2016-07-17, 12:11:05,VALID,918.551,VALID,0,VALID,75.5252,VALID,275.479,VALID,25.3374,VALID,250,VALID,0,
2016-07-17, 12:12:05,VALID,918.535,VALID,0,VALID,75.1211,VALID,305.455,VALID,25.396,VALID,250,VALID,0,
2016-07-17, 12:13:05,VALID,918.514,VALID,0,VALID,75.0144,VALID,671.292,VALID,25.5523,VALID,250,VALID,0,
2016-07-17, 12:14:05,VALID,918.482,VALID,0,VALID,74.8772,VALID,453.509,VALID,25.8257,VALID,250,VALID,0,
2016-07-17, 12:15:05,VALID,918.467,VALID,0,VALID,73.5431,VALID,536.776,VALID,26.0776,VALID,251,VALID,0,
2016-07-17, 12:16:05,VALID,918.451,VALID,0,VALID,73.0095,VALID,447.385,VALID,26.3922,VALID,250,VALID,0,
2016-07-17, 12:17:05,VALID,918.392,VALID,0,VALID,72.2319,VALID,520.552,VALID,26.6071,VALID,250,VALID,0,
2016-07-17, 12:18:05,VALID,918.385,VALID,0,VALID,70.4327,VALID,561.487,VALID,26.8806,VALID,250,VALID,0,
2016-07-17, 12:19:05,VALID,918.372,VALID,0,VALID,69.4036,VALID,464.253,VALID,27.0369,VALID,231,VALID,0,
2016-07-17, 12:20:05,VALID,918.357,VALID,0,VALID,70.2803,VALID,364.225,VALID,27.113,VALID,231,VALID,0,
2016-07-17, 12:21:05,VALID,918.33,VALID,0,VALID,69.678,VALID,357.564,VALID,27.1932,VALID,231,VALID,0,
2016-07-17, 12:22:05,VALID,918.304,VALID,0,VALID,69.0148,VALID,366.267,VALID,27.3104,VALID,343,VALID,0,
2016-07-17, 12:23:05,VALID,918.321,VALID,0,VALID,67.9475,VALID,368.953,VALID,27.3691,VALID,350,VALID,0,
2016-07-17, 12:24:05,VALID,918.276,VALID,0,VALID,69.1139,VALID,352.944,VALID,27.2127,VALID,323,VALID,0,
2016-07-17, 12:25:05,VALID,918.306,VALID,0,VALID,70.0439,VALID,353.374,VALID,27.0739,VALID,351,VALID,0,
2016-07-17, 12:26:05,VALID,918.285,VALID,0,VALID,69.4569,VALID,398.284,VALID,26.9392,VALID,254,VALID,0,
2016-07-17, 12:27:05,VALID,918.283,VALID,0,VALID,68.0085,VALID,382.383,VALID,26.7243,VALID,259,VALID,0,
2016-07-17, 12:28:05,VALID,918.274,VALID,0,VALID,69.3273,VALID,301.372,VALID,26.6852,VALID,246,VALID,0,
2016-07-17, 12:29:05,VALID,918.262,VALID,0,VALID,69.7695,VALID,284.827,VALID,26.7438,VALID,246,VALID,0,
2016-07-17, 12:30:05,VALID,918.282,VALID,0,VALID,70.3184,VALID,263.123,VALID,26.7809,VALID,246,VALID,0,
2016-07-17, 12:31:05,VALID,918.264,VALID,0,VALID,70.6843,VALID,245.825,VALID,26.8395,VALID,354,VALID,0,
2016-07-17, 12:32:05,VALID,918.256,VALID,0,VALID,72.2776,VALID,227.883,VALID,26.7243,VALID,242,VALID,0,
2016-07-17, 12:33:05,VALID,918.261,VALID,0,VALID,74.496,VALID,210.692,VALID,26.5875,VALID,92,VALID,0,
2016-07-17, 12:34:05,VALID,918.22,VALID,0,VALID,74.74,VALID,197.155,VALID,26.5074,VALID,92,VALID,0,
2016-07-17, 12:35:05,VALID,918.204,VALID,0,VALID,76.5162,VALID,184.262,VALID,26.4488,VALID,92,VALID,0,
2016-07-17, 12:36:05,VALID,918.189,VALID,0,VALID,76.5848,VALID,172.336,VALID,26.4097,VALID,92,VALID,0,
2016-07-17, 12:37:05,VALID,918.178,VALID,0,VALID,77.5454,VALID,161.914,VALID,26.3511,VALID,92,VALID,0,